TimePDT,TemperatureF,Dew PointF,Humidity,Sea Level PressureIn,VisibilityMPH,Wind Direction,Wind SpeedMPH,Gust SpeedMPH,PrecipitationIn,Events,Conditions,WindDirDegrees,DateUTC
12:15 AM,41.0,35.6,81,30.32,10.0,SSE,3.5,-,N/A,,Overcast,150,2014-03-20 07:15:00
12:35 AM,39.2,35.6,87,30.33,10.0,Calm,Calm,-,N/A,,Mostly Cloudy,0,2014-03-20 07:35:00
12:55 AM,39.2,33.8,81,30.33,10.0,Calm,Calm,-,N/A,,Scattered Clouds,0,2014-03-20 07:55:00
1:15 AM,37.4,33.8,87,30.33,10.0,Calm,Calm,-,N/A,,Mostly Cloudy,0,2014-03-20 08:15:00
1:35 AM,35.6,32.0,87,30.33,10.0,Calm,Calm,-,N/A,,Scattered Clouds,0,2014-03-20 08:35:00
1:55 AM,35.6,30.2,81,30.34,10.0,Calm,Calm,-,N/A,,Partly Cloudy,0,2014-03-20 08:55:00
2:15 AM,35.6,30.2,81,30.34,10.0,Calm,Calm,-,N/A,,Clear,0,2014-03-20 09:15:00
2:35 AM,35.6,32.0,87,30.35,10.0,Calm,Calm,-,N/A,,Mostly Cloudy,0,2014-03-20 09:35:00
2:55 AM,35.6,32.0,87,30.34,10.0,Calm,Calm,-,N/A,,Mostly Cloudy,0,2014-03-20 09:55:00
3:15 AM,35.6,30.2,81,30.35,10.0,Calm,Calm,-,N/A,,Partly Cloudy,0,2014-03-20 10:15:00
3:35 AM,35.6,32.0,87,30.35,10.0,Calm,Calm,-,N/A,,Partly Cloudy,0,2014-03-20 10:35:00
3:55 AM,33.8,32.0,93,30.36,10.0,Calm,Calm,-,N/A,,Mostly Cloudy,0,2014-03-20 10:55:00
4:15 AM,35.6,32.0,87,30.35,10.0,Calm,Calm,-,N/A,,Overcast,0,2014-03-20 11:15:00
4:35 AM,35.6,33.8,93,30.36,10.0,Calm,Calm,-,N/A,,Overcast,0,2014-03-20 11:35:00
4:55 AM,35.6,33.8,93,30.35,10.0,Calm,Calm,-,N/A,,Overcast,0,2014-03-20 11:55:00
5:15 AM,35.6,33.8,93,30.36,10.0,Calm,Calm,-,N/A,,Overcast,0,2014-03-20 12:15:00
5:35 AM,35.6,33.8,93,30.36,10.0,Calm,Calm,-,N/A,,Overcast,0,2014-03-20 12:35:00
5:55 AM,35.6,32.0,87,30.37,10.0,SSE,4.6,-,N/A,,Overcast,150,2014-03-20 12:55:00
6:15 AM,35.6,30.2,81,30.37,10.0,Calm,Calm,-,N/A,,Overcast,0,2014-03-20 13:15:00
6:35 AM,35.6,32.0,87,30.38,10.0,SSE,3.5,-,N/A,,Overcast,150,2014-03-20 13:35:00
6:55 AM,35.6,30.2,81,30.38,0.5,Calm,Calm,-,N/A,,Overcast,0,2014-03-20 13:55:00
7:15 AM,33.8,30.2,87,30.38,0.5,SSE,4.6,-,N/A,,Overcast,160,2014-03-20 14:15:00
7:35 AM,33.8,30.2,87,30.38,5.0,Calm,Calm,-,N/A,,Overcast,0,2014-03-20 14:35:00
7:55 AM,33.8,30.2,87,30.39,3.0,Calm,Calm,-,N/A,,Overcast,0,2014-03-20 14:55:00
8:15 AM,35.6,30.2,81,30.40,5.0,Calm,Calm,-,N/A,,Overcast,0,2014-03-20 15:15:00
8:35 AM,35.6,32.0,87,30.40,5.0,SE,3.5,-,N/A,,Overcast,130,2014-03-20 15:35:00
8:55 AM,35.6,33.8,93,30.40,0.8,SSE,3.5,-,N/A,,Overcast,150,2014-03-20 15:55:00
9:15 AM,35.6,33.8,93,30.41,1.2,SSE,3.5,-,N/A,,Overcast,160,2014-03-20 16:15:00
9:35 AM,37.4,33.8,87,30.41,5.0,SE,4.6,-,N/A,,Overcast,140,2014-03-20 16:35:00
9:55 AM,37.4,33.8,87,30.41,9.0,SE,4.6,-,N/A,,Mostly Cloudy,140,2014-03-20 16:55:00
10:15 AM,39.2,33.8,81,30.41,9.0,SSE,4.6,-,N/A,,Mostly Cloudy,160,2014-03-20 17:15:00
10:35 AM,39.2,33.8,81,30.42,10.0,Calm,Calm,-,N/A,,Overcast,0,2014-03-20 17:35:00
10:55 AM,42.8,35.6,76,30.42,10.0,South,4.6,-,N/A,,Overcast,180,2014-03-20 17:55:00
11:15 AM,44.6,35.6,71,30.42,10.0,SSW,3.5,-,N/A,,Mostly Cloudy,200,2014-03-20 18:15:00
11:35 AM,44.6,37.4,76,30.41,10.0,South,5.8,-,N/A,,Partly Cloudy,180,2014-03-20 18:35:00
11:55 AM,46.4,35.6,66,30.41,10.0,Calm,Calm,-,N/A,,Partly Cloudy,0,2014-03-20 18:55:00
12:15 PM,46.4,35.6,66,30.41,10.0,Calm,Calm,-,N/A,,Scattered Clouds,0,2014-03-20 19:15:00
12:35 PM,48.2,35.6,62,30.40,10.0,SSW,3.5,-,N/A,,Partly Cloudy,200,2014-03-20 19:35:00
12:55 PM,48.2,33.8,58,30.40,10.0,SSW,4.6,-,N/A,,Clear,210,2014-03-20 19:55:00
1:15 PM,48.2,33.8,58,30.40,10.0,SW,5.8,-,N/A,,Scattered Clouds,230,2014-03-20 20:15:00
1:35 PM,50.0,33.8,54,30.40,10.0,SW,5.8,-,N/A,,Mostly Cloudy,230,2014-03-20 20:35:00
1:55 PM,48.2,35.6,62,30.40,10.0,North,11.5,19.6,N/A,,Overcast,10,2014-03-20 20:55:00
2:15 PM,44.6,37.4,76,30.39,9.0,ENE,4.6,-,N/A,,Mostly Cloudy,70,2014-03-20 21:15:00
2:35 PM,48.2,37.4,66,30.39,10.0,NNE,5.8,-,N/A,,Partly Cloudy,30,2014-03-20 21:35:00
2:55 PM,50.0,33.8,54,30.38,10.0,Calm,Calm,-,N/A,,Partly Cloudy,0,2014-03-20 21:55:00
3:15 PM,50.0,33.8,54,30.37,10.0,WNW,3.5,-,N/A,,Mostly Cloudy,290,2014-03-20 22:15:00
3:35 PM,50.0,33.8,54,30.37,10.0,ENE,3.5,-,N/A,,Mostly Cloudy,60,2014-03-20 22:35:00
3:55 PM,50.0,33.8,54,30.38,10.0,NNW,10.4,17.3,N/A,,Overcast,330,2014-03-20 22:55:00
4:15 PM,46.4,35.6,66,30.39,10.0,North,9.2,-,N/A,,Mostly Cloudy,10,2014-03-20 23:15:00
4:35 PM,48.2,35.6,62,30.38,10.0,NE,9.2,-,N/A,,Mostly Cloudy,50,2014-03-20 23:35:00
4:55 PM,48.2,33.8,58,30.37,10.0,North,5.8,-,N/A,,Overcast,10,2014-03-20 23:55:00
5:15 PM,48.2,35.6,62,30.38,10.0,NNW,5.8,-,N/A,,Overcast,340,2014-03-21 00:15:00
5:35 PM,48.2,35.6,62,30.37,10.0,North,6.9,-,N/A,,Mostly Cloudy,10,2014-03-21 00:35:00
5:55 PM,48.2,35.6,62,30.37,10.0,NNW,4.6,-,N/A,,Mostly Cloudy,330,2014-03-21 00:55:00
6:15 PM,48.2,33.8,58,30.37,10.0,WNW,4.6,-,N/A,,Partly Cloudy,300,2014-03-21 01:15:00
6:35 PM,48.2,33.8,58,30.37,10.0,NW,3.5,-,N/A,,Clear,310,2014-03-21 01:35:00
6:55 PM,48.2,33.8,58,30.37,10.0,NNW,3.5,-,N/A,,Scattered Clouds,330,2014-03-21 01:55:00
7:15 PM,48.2,32.0,54,30.37,10.0,Calm,Calm,-,N/A,,Mostly Cloudy,0,2014-03-21 02:15:00
7:35 PM,46.4,32.0,57,30.37,10.0,West,5.8,-,N/A,,Mostly Cloudy,280,2014-03-21 02:35:00
7:55 PM,46.4,30.2,53,30.37,10.0,WNW,3.5,-,N/A,,Mostly Cloudy,300,2014-03-21 02:55:00
8:15 PM,44.6,32.0,61,30.37,10.0,WNW,4.6,-,N/A,,Mostly Cloudy,290,2014-03-21 03:15:00
8:35 PM,44.6,32.0,61,30.38,10.0,Calm,Calm,-,N/A,,Mostly Cloudy,0,2014-03-21 03:35:00
8:55 PM,44.6,33.8,66,30.39,10.0,Calm,Calm,-,N/A,,Partly Cloudy,0,2014-03-21 03:55:00
9:15 PM,42.8,33.8,70,30.39,10.0,Calm,Calm,-,N/A,,Mostly Cloudy,0,2014-03-21 04:15:00
9:35 PM,41.0,33.8,76,30.40,10.0,Calm,Calm,-,N/A,,Mostly Cloudy,0,2014-03-21 04:35:00
9:55 PM,41.0,33.8,76,30.40,10.0,Calm,Calm,-,N/A,,Partly Cloudy,0,2014-03-21 04:55:00
10:15 PM,39.2,33.8,81,30.40,10.0,Calm,Calm,-,N/A,,Clear,0,2014-03-21 05:15:00
10:35 PM,37.4,33.8,87,30.40,10.0,Calm,Calm,-,N/A,,Clear,0,2014-03-21 05:35:00
10:55 PM,37.4,32.0,81,30.41,10.0,Calm,Calm,-,N/A,,Clear,0,2014-03-21 05:55:00
11:15 PM,37.4,32.0,81,30.41,10.0,Calm,Calm,-,N/A,,Clear,0,2014-03-21 06:15:00
11:35 PM,35.6,30.2,81,30.41,10.0,Calm,Calm,-,N/A,,Clear,0,2014-03-21 06:35:00
11:55 PM,35.6,32.0,87,30.41,10.0,Calm,Calm,-,N/A,,Mostly Cloudy,0,2014-03-21 06:55:00